Location: Bishop�s Knoyle
(51.0728°N, 2.1714°W)
Time: 12:15:44
(UTC+00:00)

IRS-1A Rocket - Pass Details

Date: 18 September 2020
Orbit: 851 x 931 km, 99.2° (Epoch: 23 October)

Event Time Altitude Azimuth Distance (km) Brightness Sun altitude
Exits shadow 19:46:51 - 165° (SSE) 3,287 6.9 -14.9°
Reaches altitude 10° 19:48:33 10° 166° (SSE) 2,631 6.4 -15.1°
Maximum altitude 19:54:27 81° 254° (WSW) 944 4.5 -16.0°
Drops below altitude 10° 20:00:21 10° 342° (NNW) 2,623 7.3 -16.8°
Sets 20:02:46 0° 344° (NNW) 3,560 8.1 -17.2°
